Regional Weather Roundup
Issued by NWS

Home | Current Version | Previous Version | Text Only | Print | Product List | Glossary Off
Versions: 1 2 3 4 5 6 7 8 9 10 11 12 13 14 15 16 17 18 19 20 21 22 23 24 25 26 27 28 29 30 31 32 33 34 35 36 37 38 39 40 41 42 43 44 45 46 47 48 49 50

000
ASUS43 KFSD 251702
RWRSD

WEATHER ROUNDUP FOR SOUTH DAKOTA
NATIONAL WEATHER SERVICE SIOUX FALLS SD
1200 PM CDT SUN JUN 25 2017

NOTE: "FAIR" INDICATES FEW OR NO CLOUDS BELOW 12,000 FEET WITH NO
SIGNIFICANT WEATHER AND/OR OBSTRUCTIONS TO VISIBILITY.


SDZ001>005-009-010-012>017-251800-
NORTHWEST AND NORTH CENTRAL SOUTH DAKOTA

CITY           SKY/WX    TMP DP  RH WIND       PRES   REMARKS
BUFFALO          N/A     71  30  21 NW12G20   30.22F
FAITH            N/A     72  34  24 SW14G20   30.27F
MOBRIDGE       MOSUNNY   69  33  26 E6        30.25F
$$

SDZ012>016-024>037-041>051-057-063-072>074-251800-
SOUTHWEST AND SOUTH CENTRAL SOUTH DAKOTA

CITY           SKY/WX    TMP DP  RH WIND       PRES   REMARKS
RAPID CTY ARPT SUNNY     72  36  26 S12       30.30F
PIERRE         NOT AVBL
CUSTER         SUNNY     65  32  29 W15       30.37F
ELLSWORTH AFB  SUNNY     71  34  25 E6        30.30F
PHILIP         SUNNY     72  33  24 SW6       30.29F
PINE RIDGE     SUNNY     71  40  32 MISG      30.33F
SPEARFISH      FAIR      68  39  34 VRB7      30.32F
WINNER         FAIR      71  33  24 MISG      30.32F
$$

SDZ004>011-016>023-039-040-251800-
NORTHEAST SOUTH DAKOTA

CITY           SKY/WX    TMP DP  RH WIND       PRES   REMARKS
ABERDEEN       CLOUDY    63  42  46 NW8       30.28F
WATERTOWN      MOSUNNY   62  43  49 NW15G22   30.28S
BROOKINGS      MOSUNNY   62  43  49 NW16      30.29S
SISSETON         N/A     66  44  45 NW17G26   30.25S
$$

SDZ017-020-022-023-036>040-048>070-251800-
SOUTHEAST SOUTH DAKOTA

CITY           SKY/WX    TMP DP  RH WIND       PRES   REMARKS
SIOUX FALLS    MOSUNNY   66  44  45 NW17G25   30.29S
HURON          SUNNY     66  42  41 NW9G17    30.30F
CHAMBERLAIN    SUNNY     69  38  32 CALM      30.31F
YANKTON        SUNNY     66  41  40 NW16      30.32S
$$

ABBREVIATIONS USED IN REMARKS
   TC - TEMPERATURE IN CELSIUS
  WCI - WIND CHILL INDEX
   HX - HEAT INDEX
  VSB - VISIBILITY





USA.gov is the U.S. government's official web portal to all federal, state and local government web resources and services.